Find GPS IIR-12

NORAD ID: 28361 Int'l Des: 2004-023 Owner: AFSMC Country: US Constellation: GPS operational
MEOGNSS

リアルタイム位置

3D地球を読み込み中...

GPS IIR-12について

説明を読み込み中...

次回通過

Passes for default location (London). Set your location on the main map for personalized predictions.

高度履歴

Loading altitude history...

軌道要素

1 28361U 04023A 26105.57137476 .00000049 00000-0 00000+0 0 9995
2 28361 54.8217 89.2391 0160377 300.0040 243.1935 2.00553947159784
Epoch: Apr 15, 2026 • Age: 19 hours

現在のステータス

高度 20161.4 km
速度 3.88 km/s
衛星直下点 22.57°N, 135.34°E
打ち上げ日 Jun 23, 2004
運用期間 21.8 years
タイプ navigation

技術仕様

分類 Payload
質量 1077.00 kg
乾燥質量 910.00 kg
総質量 2032.00 kg
長さ 1.50 m
直径 1.90 m
スパン 19.30 m
形状 Box + 2 Pan
製造者 LMMS
バスタイプ Series 4000
フェーズステータス In Orbit
所有者/国 AFSMC/US

Most Searched